CW8254 Weather Reports


time (UTC)temp
F
wind
direction
speed
knots
gust
knots
rain 1hr
in
rain 24hr
in
rain mn
in
humidity
%
barometer
mb
20260510113724 59 292 4.3 11.3 0.00 0.00 0.00 62 1018.1
20260510113225 59 338 6.1 11.3 0.00 0.00 0.00 61 1018.1
20260510112724 59 338 4.3 14.8 0.00 0.00 0.00 61 1018.1
20260510112224 60 338 7.8 14.8 0.00 0.00 0.00 61 1018.1
20260510111725 60 0 4.3 14.8 0.00 0.00 0.00 61 1018.1
20260510111227 60 0 7.8 13.9 0.00 0.00 0.00 60 1018.1
20260510110725 60 338 5.2 13.9 0.00 0.00 0.00 61 1018.1
20260510105725 60 338 6.1 14.8 0.00 0.00 0.00 61 1018.1
20260510105234 60 0 7.0 14.8 0.00 0.00 0.00 62 1018.1
20260510104724 60 315 7.8 10.4 0.00 0.00 0.00 62 1018.1
20260510104224 60 0 7.8 9.6 0.00 0.00 0.00 62 1018.1
20260510103725 60 0 5.2 10.4 0.00 0.00 0.00 62 1018.1
20260510103224 60 202 5.2 10.4 0.00 0.00 0.00 63 1018.1
20260510102725 60 338 5.2 9.6 0.00 0.00 0.00 62 1018.1
20260510102245 60 338 4.3 12.2 0.00 0.00 0.00 63 1019.1
20260510101743 60 180 3.5 14.8 0.00 0.00 0.00 63 1019.1
20260510101225 60 338 7.0 14.8 0.00 0.00 0.00 63 1019.1
20260510100237 60 0 9.6 12.2 0.00 0.00 0.00 66 1019.1
20260510095728 60 338 7.8 12.2 0.00 0.00 0.00 66 1019.1
20260510095225 59 0 7.8 9.6 0.00 0.00 0.00 66 1018.1
20260510094225 59 315 7.0 13.0 0.00 0.00 0.00 67 1018.1
20260510093724 58 0 5.2 13.0 0.00 0.00 0.00 68 1019.1
20260510093228 58 0 4.3 13.0 0.00 0.00 0.00 68 1019.1
20260510091746 57 0 10.4 11.3 0.00 0.00 0.00 69 1019.1
20260510090724 57 338 6.1 11.3 0.00 0.00 0.00 70 1019.1
20260510090224 57 315 5.2 10.4 0.00 0.00 0.00 71 1019.1
20260510085725 56 0 7.0 8.7 0.00 0.00 0.00 71 1019.1
20260510085225 56 0 5.2 11.3 0.00 0.00 0.00 71 1019.1
20260510084724 56 0 7.0 14.8 0.00 0.00 0.00 72 1019.1
20260510084224 56 315 7.8 14.8 0.00 0.00 0.00 73 1019.1
20260510083725 55 338 7.8 14.8 0.00 0.00 0.00 73 1019.1
20260510083225 55 338 5.2 14.8 0.00 0.00 0.00 74 1019.1
20260510082224 55 338 7.8 13.9 0.00 0.00 0.00 74 1019.1
20260510081724 55 0 4.3 13.9 0.00 0.00 0.00 75 1019.1
20260510081224 55 0 5.2 10.4 0.00 0.00 0.00 75 1019.1
20260510080224 55 0 6.1 11.3 0.00 0.00 0.00 75 1019.1
20260510075725 55 338 4.3 13.9 0.00 0.00 0.00 75 1019.1
20260510075234 55 338 6.1 13.9 0.00 0.00 0.00 75 1019.1
20260510074725 55 0 7.8 13.9 0.00 0.00 0.00 75 1019.1
20260510073726 55 0 3.5 10.4 0.00 0.00 0.00 75 1019.1
20260510073224 55 0 6.1 8.7 0.00 0.00 0.00 75 1019.1
20260510072725 55 0 6.1 9.6 0.00 0.00 0.00 75 1019.1
20260510071726 55 338 6.1 7.8 0.00 0.00 0.00 75 1019.1
20260510071224 55 315 5.2 7.8 0.00 0.00 0.00 75 1019.1
20260510070725 55 0 3.5 8.7 0.00 0.00 0.00 75 1019.1
20260510070225 55 0 4.3 8.7 0.00 0.00 0.00 75 1019.1
20260510065725 54 0 6.1 8.7 0.00 0.00 0.00 75 1019.1
20260510064225 54 0 5.2 7.0 0.00 0.00 0.00 76 1019.1
20260510063226 54 0 2.6 7.0 0.00 0.00 0.00 76 1019.1
20260510062224 53 338 2.6 8.7 0.00 0.00 0.00 77 1019.1
20260510061724 53 0 3.5 9.6 0.00 0.00 0.00 77 1019.1
20260510060224 53 0 5.2 8.7 0.00 0.00 0.00 77 1018.1
20260510055725 53 0 1.7 8.7 0.00 0.00 0.00 77 1018.1
20260510055225 52 158 4.3 8.7 0.00 0.00 0.00 77 1018.1
20260510054724 52 0 4.3 8.7 0.00 0.00 0.00 77 1018.1
20260510053725 52 0 2.6 11.3 0.00 0.00 0.00 78 1019.1
20260510052725 52 292 5.2 11.3 0.00 0.00 0.00 79 1019.1
20260510052224 51 0 6.1 11.3 0.00 0.00 0.00 79 1018.1
20260510051724 51 338 5.2 11.3 0.00 0.00 0.00 79 1018.1
20260510051225 51 202 7.0 10.4 0.00 0.00 0.00 79 1018.1
20260510045725 51 315 5.2 10.4 0.00 0.00 0.00 79 1018.1
20260510045224 51 0 5.2 9.6 0.00 0.00 0.00 79 1018.1
20260510044224 51 0 5.2 9.6 0.00 0.00 0.00 79 1018.1
20260510043724 51 0 3.5 10.4 0.00 0.00 0.00 79 1018.1
20260510043225 51 135 3.5 10.4 0.00 0.00 0.00 79 1018.1
20260510042725 51 0 7.0 10.4 0.00 0.00 0.00 79 1018.1
20260510042225 51 0 5.2 8.7 0.00 0.00 0.00 79 1019.1
20260510041726 51 0 4.3 11.3 0.00 0.00 0.00 79 1019.1
20260510041226 51 0 2.6 11.3 0.00 0.00 0.00 79 1019.1
20260510040224 51 338 8.7 10.4 0.00 0.00 0.00 79 1019.1
20260510035724 51 338 7.8 10.4 0.00 0.00 0.00 79 1019.1
20260510034225 51 338 3.5 7.8 0.00 0.00 0.00 78 1019.1
20260510033224 51 315 3.5 7.0 0.00 0.00 0.00 76 1019.1
20260510032225 51 338 3.5 9.6 0.00 0.00 0.00 76 1019.1
20260510031725 51 315 1.7 9.6 0.00 0.00 0.00 76 1019.1
20260510031225 51 338 2.6 9.6 0.00 0.00 0.00 76 1019.1
20260510030724 51 315 2.6 8.7 0.00 0.00 0.00 77 1019.1
20260510025724 51 338 3.5 8.7 0.00 0.00 0.00 76 1019.1
20260510025224 51 248 2.6 8.7 0.00 0.00 0.00 76 1019.1
20260510024725 51 0 3.5 8.7 0.00 0.00 0.00 75 1019.1
20260510024225 51 0 4.3 6.1 0.00 0.00 0.00 75 1019.1
20260510023724 51 338 3.5 6.1 0.00 0.00 0.00 75 1019.1
20260510022724 52 0 2.6 7.0 0.00 0.00 0.00 75 1019.1
20260510022226 52 338 4.3 7.0 0.00 0.00 0.00 75 1019.1
20260510021726 52 202 2.6 7.0 0.00 0.00 0.00 75 1019.1
20260510021225 52 0 2.6 7.8 0.00 0.00 0.00 75 1019.1
20260510020724 52 0 5.2 7.8 0.00 0.00 0.00 75 1019.1
20260510020225 52 0 3.5 7.8 0.00 0.00 0.00 74 1019.1
20260510015726 52 0 1.7 3.5 0.00 0.00 0.00 73 1019.1
20260510015224 52 315 1.7 3.5 0.00 0.00 0.00 74 1019.1
20260510014725 52 292 1.7 5.2 0.00 0.00 0.00 73 1019.1
20260510014224 52 315 1.7 5.2 0.00 0.00 0.00 73 1019.1
20260510013225 52 338 3.5 5.2 0.00 0.00 0.00 72 1019.1
20260510012225 52 248 0.9 5.2 0.00 0.00 0.00 72 1019.1
20260510011726 52 338 3.5 2.6 0.00 0.00 0.00 73 1019.1
20260510011225 52 315 1.7 3.5 0.00 0.00 0.00 73 1019.1
20260510010725 52 225 0.9 3.5 0.00 0.00 0.00 72 1019.1
20260510010224 52 180 0.9 5.2 0.00 0.00 0.00 72 1019.1
20260510005724 53 0 1.7 5.2 0.00 0.00 0.00 71 1019.1
20260510005225 53 0 0.9 5.2 0.00 0.00 0.00 71 1019.1
20260510004724 53 0 3.5 4.3 0.00 0.00 0.00 70 1019.1
20260510004224 53 180 0.9 4.3 0.00 0.00 0.00 69 1019.1
20260510003724 53 338 1.7 5.2 0.00 0.00 0.00 69 1019.1
20260510003225 53 338 2.6 6.1 0.00 0.00 0.00 69 1019.1
20260510002724 53 0 1.7 6.1 0.00 0.00 0.00 68 1019.1
20260510002225 53 0 2.6 6.1 0.00 0.00 0.00 69 1019.1
20260510001224 54 248 2.6 5.2 0.00 0.00 0.00 68 1019.1
20260510000725 54 338 3.5 5.2 0.00 0.00 0.00 67 1019.1
20260510000226 54 0 2.6 6.1 0.00 0.00 0.00 67 1019.1
20260509235742 54 0 1.7 7.0 0.00 0.00 0.00 67 1019.1
20260509234743 54 0 3.5 7.0 0.00 0.00 0.00 66 1019.1
20260509234224 54 0 2.6 7.0 0.00 0.00 0.00 66 1019.1
20260509233724 54 338 3.5 7.0 0.00 0.00 0.00 66 1019.1
20260509232729 54 0.0 8.7 0.00 0.00 0.00 65 1019.1
20260509232233 54 338 4.3 8.7 0.00 0.00 0.00 65 1019.1
20260509231724 54 0 5.2 8.7 0.00 0.00 0.00 65 1019.1
20260509231224 54 338 3.5 7.0 0.00 0.00 0.00 63 1019.1
20260509230725 54 0 3.5 7.0 0.00 0.00 0.00 63 1019.1
20260509230224 54 338 2.6 8.7 0.00 0.00 0.00 62 1019.1
20260509225725 54 0 5.2 8.7 0.00 0.00 0.00 61 1019.1
20260509225225 54 0 3.5 7.0 0.00 0.00 0.00 61 1019.1
20260509224724 54 338 2.6 10.4 0.00 0.00 0.00 61 1019.1
20260509224224 54 338 2.6 10.4 0.00 0.00 0.00 61 1019.1
20260509223725 54 0 3.5 8.7 0.00 0.00 0.00 60 1019.1
20260509223242 54 338 2.6 8.7 0.00 0.00 0.00 60 1019.1
20260509222726 54 0 4.3 7.8 0.00 0.00 0.00 59 1019.1
20260509222225 54 0 5.2 7.0 0.00 0.00 0.00 59 1020.1
20260509221724 54 338 5.2 9.6 0.00 0.00 0.00 59 1020.1
20260509220724 54 0 2.6 9.6 0.00 0.00 0.00 58 1019.1
20260509220224 54 338 3.5 7.0 0.00 0.00 0.00 57 1019.1
20260509215725 54 338 2.6 7.0 0.00 0.00 0.00 57 1019.1
20260509215224 54 0 6.1 6.1 0.00 0.00 0.00 56 1019.1
20260509214724 54 338 3.5 6.1 0.00 0.00 0.00 55 1019.1
20260509214225 54 0 0.9 7.0 0.00 0.00 0.00 55 1019.1
20260509213725 54 338 2.6 7.0 0.00 0.00 0.00 54 1019.1
20260509213224 54 0 2.6 7.0 0.00 0.00 0.00 54 1019.1
20260509212725 55 0 3.5 4.3 0.00 0.00 0.00 53 1019.1
20260509212225 55 315 3.5 5.2 0.00 0.00 0.00 52 1019.1
20260509211724 55 225 2.6 5.2 0.00 0.00 0.00 52 1019.1
20260509211239 55 0 2.6 5.2 0.00 0.00 0.00 51 1019.1
20260509210726 55 0 3.5 5.2 0.00 0.00 0.00 51 1019.1
20260509210226 55 0 3.5 4.3 0.00 0.00 0.00 51 1019.1
20260509205725 55 0 2.6 3.5 0.00 0.00 0.00 50 1019.1
20260509205225 55 0 1.7 5.2 0.00 0.00 0.00 50 1019.1
20260509204725 55 315 1.7 5.2 0.00 0.00 0.00 50 1019.1
20260509204224 55 202 1.7 5.2 0.00 0.00 0.00 50 1019.1
20260509203724 55 0 2.6 5.2 0.00 0.00 0.00 49 1019.1
20260509203225 56 135 1.7 5.2 0.00 0.00 0.00 49 1019.1
20260509202224 56 315 3.5 5.2 0.00 0.00 0.00 48 1019.1
20260509201726 56 0 3.5 5.2 0.00 0.00 0.00 48 1019.1
20260509200724 56 0 2.6 7.0 0.00 0.00 0.00 48 1019.1
20260509200224 57 0 2.6 5.2 0.00 0.00 0.00 47 1019.1
20260509195725 57 270 3.5 5.2 0.00 0.00 0.00 47 1019.1
20260509194724 57 0 2.6 5.2 0.00 0.00 0.00 46 1019.1
20260509194225 57 292 1.7 5.2 0.00 0.00 0.00 46 1019.1
20260509193224 58 0 2.6 5.2 0.00 0.00 0.00 45 1019.1
20260509192725 58 0 1.7 5.2 0.00 0.00 0.00 45 1019.1
20260509192225 58 158 0.9 7.0 0.00 0.00 0.00 45 1019.1
20260509191724 59 315 2.6 7.0 0.00 0.00 0.00 45 1019.1
20260509191224 59 338 3.5 7.0 0.00 0.00 0.00 45 1019.1
20260509190724 59 338 3.5 3.5 0.00 0.00 0.00 44 1019.1
20260509190227 60 202 1.7 3.5 0.00 0.00 0.00 44 1019.1
20260509185724 60 0 2.6 3.5 0.00 0.00 0.00 44 1019.1
20260509185239 60 0.0 3.5 0.00 0.00 0.00 44 1019.1
20260509184724 60 0 3.5 4.3 0.00 0.00 0.00 45 1019.1
20260509184224 61 0.0 4.3 0.00 0.00 0.00 45 1019.1
20260509183225 61 338 3.5 3.5 0.00 0.00 0.00 44 1019.1
20260509182724 62 0.0 4.3 0.00 0.00 0.00 44 1019.1
20260509182225 62 0 4.3 4.3 0.00 0.00 0.00 44 1019.1
20260509181725 62 135 5.2 6.1 0.00 0.00 0.00 44 1019.1
20260509181224 62 0 3.5 6.1 0.00 0.00 0.00 44 1019.1
20260509180726 63 0 2.6 6.1 0.00 0.00 0.00 44 1019.1
20260509180225 63 270 4.3 5.2 0.00 0.00 0.00 44 1019.1
20260509174724 64 0 3.5 5.2 0.00 0.00 0.00 44 1019.1
20260509174225 64 292 1.7 5.2 0.00 0.00 0.00 44 1019.1
20260509173225 65 338 1.7 8.7 0.00 0.00 0.00 43 1019.1
20260509172724 65 292 3.5 8.7 0.00 0.00 0.00 43 1019.1
20260509172224 65 292 5.2 8.7 0.00 0.00 0.00 43 1019.1
20260509171725 65 0 5.2 7.8 0.00 0.00 0.00 43 1019.1
20260509171224 65 0 3.5 7.8 0.00 0.00 0.00 43 1019.1
20260509170744 65 202 3.5 7.8 0.00 0.00 0.00 43 1019.1
20260509170224 65 0 5.2 7.8 0.00 0.00 0.00 43 1019.1
20260509165725 65 0 5.2 7.8 0.00 0.00 0.00 43 1019.1
20260509164724 66 0 5.2 5.2 0.00 0.00 0.00 44 1019.1
20260509163724 66 315 3.5 5.2 0.00 0.00 0.00 43 1019.1
20260509163225 67 270 2.6 5.2 0.00 0.00 0.00 44 1019.1
20260509162724 67 248 2.6 5.2 0.00 0.00 0.00 43 1019.1
20260509160224 68 180 3.5 7.0 0.00 0.00 0.00 43 1019.1
20260509155724 68 158 3.5 5.2 0.00 0.00 0.00 43 1019.1
20260509154725 68 338 1.7 6.1 0.00 0.00 0.00 43 1019.1
20260509154226 69 292 3.5 7.0 0.00 0.00 0.00 43 1019.1
20260509153734 69 0 3.5 7.0 0.00 0.00 0.00 44 1019.1
20260509153224 69 0 2.6 7.0 0.00 0.00 0.00 43 1019.1
20260509152724 69 315 1.7 7.0 0.00 0.00 0.00 44 1019.1
20260509152224 69 0 1.7 7.8 0.00 0.00 0.00 44 1019.1
20260509151725 69 158 2.6 8.7 0.00 0.00 0.00 43 1019.1
20260509151224 69 0 2.6 8.7 0.00 0.00 0.00 43 1019.1
20260509150225 69 180 2.6 7.8 0.00 0.00 0.00 43 1019.1
20260509145724 69 292 3.5 8.7 0.00 0.00 0.00 43 1019.1
20260509144724 69 248 1.7 8.7 0.00 0.00 0.00 43 1019.1
20260509144224 69 202 3.5 6.1 0.00 0.00 0.00 43 1019.1
20260509143225 69 338 2.6 7.0 0.00 0.00 0.00 44 1019.1
20260509142724 69 248 2.6 7.0 0.00 0.00 0.00 43 1019.1
20260509142224 69 0 3.5 7.8 0.00 0.00 0.00 44 1019.1
20260509141725 69 158 3.5 7.8 0.00 0.00 0.00 43 1019.1
20260509141224 69 0 3.5 7.0 0.00 0.00 0.00 44 1019.1
20260509140724 70 292 4.3 9.6 0.00 0.00 0.00 44 1019.1
20260509135224 69 338 5.2 9.6 0.00 0.00 0.00 44 1019.1
20260509134724 69 248 2.6 9.6 0.00 0.00 0.00 44 1019.1
20260509134225 69 292 5.2 9.6 0.00 0.00 0.00 45 1019.1
20260509133724 69 202 3.5 7.0 0.00 0.00 0.00 45 1019.1
20260509133226 69 0 3.5 8.7 0.00 0.00 0.00 45 1019.1
20260509132724 69 0 1.7 8.7 0.00 0.00 0.00 45 1019.1
20260509132225 69 0 2.6 7.0 0.00 0.00 0.00 45 1019.1
20260509131724 69 0 5.2 7.0 0.00 0.00 0.00 45 1019.1
20260509131224 69 0 5.2 7.0 0.00 0.00 0.00 45 1019.1
20260509130749 69 292 3.5 7.0 0.00 0.00 0.00 45 1019.1
20260509125725 68 0 3.5 7.8 0.00 0.00 0.00 45 1019.1
20260509124225 69 315 4.3 7.8 0.00 0.00 0.00 46 1019.1
20260509123725 69 0 4.3 7.8 0.00 0.00 0.00 46 1019.1
20260509123225 69 0 3.5 7.8 0.00 0.00 0.00 46 1019.1
20260509122724 69 0 3.5 7.8 0.00 0.00 0.00 46 1019.1
20260509122226 69 0 4.3 7.8 0.00 0.00 0.00 47 1019.1
20260509121725 69 0 5.2 7.8 0.00 0.00 0.00 47 1019.1
20260509121225 69 0 3.5 7.8 0.00 0.00 0.00 47 1019.1
20260509120725 68 0 4.3 7.8 0.00 0.00 0.00 47 1019.1
20260509120224 68 0 5.2 7.8 0.00 0.00 0.00 48 1019.1
20260509114725 68 0 3.5 9.6 0.00 0.00 0.00 50 1019.1
20260509114226 68 338 4.3 8.7 0.00 0.00 0.00 50 1019.1